This is the latest recevied weather packets stored in our database for station/object W5LND-10. If no packets are shown the sender has not sent any weather packets the latest 10 day(s).
| Time | Temp. | Humidity | Pressure | Rain* | Wind** | Luminosity | Snow |
|---|---|---|---|---|---|---|---|
| 1787781054 | 37.22° C | 30% | 1009.1 hPa | 0 mm | - | 248 W/m² | - |
| 1787780750 | 37.22° C | 30% | 1009.2 hPa | 0 mm | - | 320 W/m² | - |
| 1787780450 | 37.22° C | 30% | 1009.3 hPa | 0 mm | - | 731 W/m² | - |
| 1787780150 | 37.22° C | 30% | 1009.3 hPa | 0 mm | - | 744 W/m² | - |
| 1787779850 | 37.78° C | 29% | 1009.4 hPa | 0 mm | - | 200 W/m² | - |
| 1787779550 | 38.33° C | 29% | 1009.5 hPa | 0 mm | - | 195 W/m² | - |
| 1787779250 | 38.33° C | 29% | 1009.5 hPa | 0 mm | - | 710 W/m² | - |
| 1787778950 | 38.33° C | 29% | 1009.6 hPa | 0 mm | - | 726 W/m² | - |
| 1787778650 | 38.33° C | 29% | 1009.7 hPa | 0 mm | - | 737 W/m² | - |
| 1787778350 | 38.33° C | 29% | 1009.8 hPa | 0 mm | - | 754 W/m² | - |
| 1787778050 | 37.78° C | 30% | 1009.8 hPa | 0 mm | - | 773 W/m² | - |
| 1787777750 | 37.78° C | 30% | 1009.9 hPa | 0 mm | - | 824 W/m² | - |
| 1787777450 | 37.22° C | 30% | 1010 hPa | 0 mm | - | 858 W/m² | - |
| 1787777150 | 37.22° C | 30% | 1009.9 hPa | 0 mm | - | 425 W/m² | - |
| 1787776850 | 36.67° C | 30% | 1010.1 hPa | 0 mm | - | 399 W/m² | - |
| 1787776550 | 36.67° C | 29% | 1010.2 hPa | 0 mm | - | 367 W/m² | - |
| 1787776250 | 37.22° C | 29% | 1010.2 hPa | 0 mm | - | 364 W/m² | - |
| 1787775950 | 37.22° C | 29% | 1010.4 hPa | 0 mm | - | 432 W/m² | - |
| 1787775650 | 37.22° C | 29% | 1010.3 hPa | 0 mm | - | 548 W/m² | - |
| 1787775350 | 37.22° C | 29% | 1010.5 hPa | 0 mm | - | 522 W/m² | - |
| 1787775050 | 37.22° C | 29% | 1010.6 hPa | 0 mm | - | 791 W/m² | - |
| 1787774750 | 37.78° C | 29% | 1010.5 hPa | 0 mm | - | 1106 W/m² | - |
| 1787774450 | 37.78° C | 29% | 1010.7 hPa | 0 mm | - | 1106 W/m² | - |
| 1787774150 | 37.78° C | 29% | 1010.8 hPa | 0 mm | - | 1051 W/m² | - |
| 1787773850 | 37.22° C | 30% | 1011 hPa | 0 mm | - | 1058 W/m² | - |
* Rain latest hour (hover to see other rain measurements)
** Current wind speed in m/s (hover to see current wind gust speed)